Flag for Romania Weather past 2 weeks in Iasi, Romania

34 °F

Partly sunny.

Feels Like: 26 °F
Forecast: 35 / 44 °F
Wind: 9 mph from North

Location: Iasi Airport

Current Time: Nov 27, 2015 at 2:50:15 PM

Latest Report: Nov 27, 2015 at 2:00 PM

Visibility: 4 mi

Pressure: 30.12 "Hg

Humidity: 100%

Dew point: 34 °F

Location of IasiLocation

Historic Weather in Iasi — Graph


Iasi temperature yesterday

Maximum temperature yesterday: 36 °F (at 12:00 AM)
Minimum temperature yesterday: 32 °F (at 6:00 PM)
Average temperature yesterday: 34 °F

Past Weeks' High & Low Weather Summary

High68 °F (Nov 12, 3:00 PM)100% (Nov 17, 4:00 AM)30.36 "Hg (Nov 17, 4:00 AM)
Low30 °F (Nov 17, 6:00 AM)28% (Nov 20, 12:30 PM)29.24 "Hg (Nov 21, 1:00 PM)
Average46 °F78%29.93 "Hg
* Reported Nov 12 1:00 PM — Nov 27 1:30 PM, Iasi, Weather by CustomWeather, © 2015

Note: Actual official high and low records may vary slightly from our data, if they occured in-between our weather recording intervals... More about our weather records


Iasi weather history for previous 24 hours

Time TempWeatherWind HumidityBarometerVisibility
1:30 PM
Fri, Nov 27
34 °FPartly sunny.9 mph100%30.12 "Hg4 mi
1:00 PM34 °FPartly sunny.9 mph100%30.12 "Hg4 mi
12:30 PM34 °FFog.8 mph100%30.12 "Hg3 mi
12:00 PM34 °FPartly sunny.8 mph100%30.12 "Hg4 mi
11:30 AM34 °FBroken clouds.8 mph100%30.12 "Hg4 mi
11:00 AM34 °FLight rain. Partly sunny.7 mph100%30.12 "Hg4 mi
10:30 AM32 °FPartly sunny.8 mph100%30.12 "Hg6 mi
10:00 AM32 °FPartly sunny.7 mph100%30.12 "Hg6 mi
9:00 AM32 °FPartly sunny.8 mph100%30.09 "Hg6 mi
8:30 AM32 °FBroken clouds.7 mph100%30.09 "Hg6 mi
8:00 AM32 °FBroken clouds.8 mph100%30.09 "Hg5 mi
7:30 AM32 °FPartly sunny.7 mph100%30.07 "Hg6 mi
7:00 AM32 °FLight snow. Passing clouds.7 mph100%30.07 "Hg5 mi
6:00 AM32 °FSnow. Ice fog.7 mph100%30.07 "Hg1 mi
5:30 AM32 °FLight snow. Ice fog.6 mph100%30.07 "Hg2 mi
5:00 AM32 °FLight snow. Ice fog.6 mph100%30.04 "Hg2 mi
4:00 AM32 °FLight snow. Ice fog.7 mph100%30.04 "Hg2 mi
3:00 AM32 °FLight snow. Partly cloudy.9 mph100%30.04 "Hg4 mi
2:00 AM32 °FOvercast.12 mph100%30.04 "Hg5 mi
1:00 AM32 °FLight snow. Mostly cloudy.13 mph100%30.01 "Hg5 mi
12:00 AM32 °FLight snow. Mostly cloudy.12 mph100%30.01 "Hg4 mi
11:00 PM
Thu, Nov 26
32 °FSnow. Ice fog.10 mph100%30.01 "Hg1 mi
10:00 PM32 °FSnow. Ice fog.10 mph100%29.98 "Hg1 mi
9:00 PM32 °FSnow. Ice fog.12 mph100%29.98 "Hg1 mi
8:30 PM32 °FSnow. Ice fog.10 mph100%29.95 "Hg2 mi
7:30 PM32 °FSnow. Ice fog.9 mph100%29.92 "Hg1 mi
7:00 PM32 °FSnow. Ice fog.10 mph100%29.92 "Hg1 mi
6:30 PM32 °FSnow. Ice fog.12 mph100%29.89 "Hg1 mi
6:00 PM32 °FLight snow. Ice fog.12 mph100%29.89 "Hg1 mi
5:30 PM34 °FLight rain. Fog.13 mph100%29.86 "Hg1 mi
5:00 PM34 °FLight rain. Fog.14 mph100%29.86 "Hg1 mi
4:30 PM34 °FLight rain. Fog.15 mph100%29.83 "Hg1 mi
4:00 PM34 °FLight rain. Fog.12 mph100%29.83 "Hg2 mi
3:30 PM34 °FLight rain. Fog.13 mph100%29.83 "Hg2 mi
3:00 PM34 °FLight rain. Fog.12 mph100%29.83 "Hg2 mi
2:30 PM34 °FSprinkles. Fog.9 mph100%29.83 "Hg2 mi
2:00 PM34 °FSprinkles. Partly sunny.12 mph100%29.83 "Hg2 mi
Weather by CustomWeather, © 2015

See weather overviewHow to use our weather pages